Latest Coastal Weather Observations for Cape Flattery

IDQ60701

Issued at 1:45 am EST Saturday 23 August 2014 (issued every 10 minutes, with the page automatically refreshed every 10 minutes)

About coastal observations | Map of coastal stations | Coastal observations for QLD | Marine services | Other Formats
Station Details ID: 031213 Name: CAPE FLATTERY Lat: -14.97 Lon: 145.31 Height: 18.5 m
Data from the previous 72 hours. | See also: Recent months at Cape Flattery
Date/Time
EST
Temp

°C
Wind Pressure Rain
since 9am
mm
Weather Cloud Vis
km
Sea
Height
m
Swell
Dir
 
Speed
knots
Gust
knots
hPa Trend Height
m
Period
s
Dir
23/01:30am 23.3 SE 19 25 1016.0 - 0.0 - - - - - - -
23/01:00am 23.4 SE 17 23 1016.3 - 0.0 - - - - - - -
23/12:30am 23.5 SE 17 23 1016.4 - 0.0 - - - - - - -
23/12:11am 23.5 SE 15 25 1016.5 - 0.0 - - - - - - -
23/12:00am 23.4 SE 17 21 1016.5 - 0.0 - - - - - - -
 
Date/Time
EST
Temp

°C
Wind Pressure Rain
since 9am
mm
Weather Cloud Vis
km
Sea
Height
m
Swell
Dir
 
Speed
knots
Gust
knots
hPa Trend Height
m
Period
s
Dir
22/11:30pm 23.4 SE 15 22 1016.6 - 0.0 - - - - - - -
22/11:00pm 23.5 SE 16 22 1016.6 - 0.0 - - - - - - -
22/10:30pm 23.5 SSE 17 25 1016.6 - 0.0 - - - - - - -
22/10:00pm 23.5 SSE 18 23 1016.6 - 0.0 - - - - - - -
22/09:30pm 23.4 SE 17 23 1016.9 - 0.0 - - - - - - -
22/09:00pm 23.4 SE 16 23 1017.0 - 0.0 - - - - - - -
22/08:30pm 23.2 SE 16 23 1016.9 - 0.0 - - - - - - -
22/08:00pm 23.2 SE 17 23 1016.6 - 0.0 - - - - - - -
22/07:30pm 23.2 SE 17 24 1016.4 - 0.0 - - - - - - -
22/07:00pm 23.2 SE 17 24 1016.0 - 0.0 - - - - - - -
22/06:30pm 23.3 SE 19 25 1015.6 - 0.0 - - - - - - -
22/06:00pm 23.4 SE 17 23 1015.5 - 0.0 - - - - - - -
22/05:30pm 23.9 SE 18 24 1015.2 - 0.0 - - - - - - -
22/05:00pm 24.7 SSE 19 25 1015.1 - 0.0 - - - - - - -
22/04:30pm 24.9 SSE 20 26 1014.9 - 0.0 - - - - - - -
22/04:00pm 25.5 SSE 19 26 1014.8 - 0.0 - - - - - - -
22/03:30pm 25.7 SSE 20 26 1014.8 - 0.0 - - - - - - -
22/03:00pm 26.4 SE 19 25 1014.8 - 0.0 - - - - - - -
22/02:30pm 26.1 SE 18 24 1015.1 - 0.0 - - - - - - -
22/02:00pm 27.1 SE 18 24 1015.4 - 0.0 - - - - - - -
22/01:30pm 26.6 SE 19 25 1015.7 - 0.0 - - - - - - -
22/01:00pm 27.0 SE 18 24 1016.1 - 0.0 - - - - - - -
22/12:30pm 27.4 SE 17 23 1016.4 - 0.0 - - - - - - -
22/12:00pm 26.8 SE 19 24 1016.7 - 0.0 - - - - - - -
22/11:30am 26.8 SE 19 24 1017.0 - 0.0 - - - - - - -
22/11:00am 26.7 SSE 19 24 1017.4 - 0.0 - - - - - - -
22/10:30am 26.2 SE 16 22 1017.8 - 0.0 - - - - - - -
22/10:00am 25.8 SE 17 22 1017.9 - 0.0 - - - - - - -
22/09:30am 25.3 SE 17 21 1017.9 - 0.0 - - - - - - -
22/09:00am 24.9 SE 16 21 1017.7 - 0.0 - - - - - - -
22/08:30am 24.4 SE 14 18 1017.6 - 0.0 - - - - - - -
22/08:00am 24.1 SE 14 18 1017.4 - 0.0 - - - - - - -
22/07:30am 23.4 SE 11 15 1017.1 - 0.0 - - - - - - -
22/07:00am 22.6 SE 13 17 1016.9 - 0.0 - - - - - - -
22/06:30am 22.2 SE 13 17 1016.5 - 0.0 - - - - - - -
22/06:00am 22.5 SE 13 17 1016.3 - 0.0 - - - - - - -
22/05:30am 22.6 SE 12 17 1015.9 - 0.0 - - - - - - -
22/05:00am 22.2 SE 12 18 1015.6 - 0.0 - - - - - - -
22/04:30am 22.3 SE 13 18 1015.5 - 0.0 - - - - - - -
22/04:00am 22.3 SE 13 17 1015.6 - 0.0 - - - - - - -
22/03:30am 22.6 SE 13 19 1015.5 - 0.0 - - - - - - -
22/03:00am 22.4 SE 13 18 1015.8 - 0.0 - - - - - - -
22/02:30am 22.4 SSE 13 18 1015.9 - 0.0 - - - - - - -
22/02:00am 22.4 SSE 13 18 1016.0 - 0.0 - - - - - - -
22/01:30am 22.4 SE 11 15 1016.2 - 0.0 - - - - - - -
22/01:00am 22.3 SE 13 19 1016.3 - 0.0 - - - - - - -
22/12:30am 22.5 SE 13 17 1016.6 - 0.0 - - - - - - -
22/12:00am 22.5 SE 13 17 1016.9 - 0.0 - - - - - - -
 
Date/Time
EST
Temp

°C
Wind Pressure Rain
since 9am
mm
Weather Cloud Vis
km
Sea
Height
m
Swell
Dir
 
Speed
knots
Gust
knots
hPa Trend Height
m
Period
s
Dir
21/11:30pm 22.2 SE 13 18 1016.9 - 0.0 - - - - - - -
21/11:00pm 22.4 SE 12 17 1017.0 - 0.0 - - - - - - -
21/10:30pm 22.5 SE 13 18 1017.0 - 0.0 - - - - - - -
21/10:00pm 22.4 SE 12 17 1017.1 - 0.0 - - - - - - -
21/09:30pm 22.4 SE 13 17 1017.0 - 0.0 - - - - - - -
21/09:00pm 22.6 SE 14 19 1016.8 - 0.0 - - - - - - -
21/08:30pm 22.6 SE 14 20 1016.7 - 0.0 - - - - - - -
21/08:00pm 22.7 SE 14 19 1016.5 - 0.0 - - - - - - -
21/07:30pm 22.6 SE 13 18 1016.2 - 0.0 - - - - - - -
21/07:00pm 22.7 SE 13 21 1015.9 - 0.0 - - - - - - -
21/06:30pm 22.8 SE 14 19 1015.6 - 0.0 - - - - - - -
21/06:00pm 23.0 SE 13 21 1015.3 - 0.0 - - - - - - -
21/05:30pm 23.8 SSE 15 20 1015.1 - 0.0 - - - - - - -
21/05:00pm 24.3 SSE 15 22 1014.8 - 0.0 - - - - - - -
21/04:30pm 24.9 SSE 15 21 1014.7 - 0.0 - - - - - - -
21/04:00pm 25.4 SSE 15 21 1014.4 - 0.0 - - - - - - -
21/03:30pm 25.3 SE 16 22 1014.3 - 0.0 - - - - - - -
21/03:00pm 26.0 SE 16 19 1014.3 - 0.0 - - - - - - -
21/02:30pm 25.8 SE 16 20 1014.3 - 0.0 - - - - - - -
21/02:00pm 26.3 SE 16 21 1014.8 - 0.0 - - - - - - -
21/01:30pm 26.2 SE 16 20 1015.2 - 0.0 - - - - - - -
21/01:00pm 26.2 SSE 17 21 1015.4 - 0.0 - - - - - - -
21/12:30pm 26.1 SE 17 21 1015.7 - 0.0 - - - - - - -
21/12:00pm 26.7 SSE 16 20 1015.9 - 0.0 - - - - - - -
21/11:30am 26.0 SE 15 19 1016.5 - 0.0 - - - - - - -
21/11:00am 26.6 SE 13 17 1016.8 - 0.0 - - - - - - -
21/10:30am 25.7 SE 4 17 1017.1 - 0.0 - - - - - - -
21/10:00am 25.1 SE 6 17 1017.4 - 0.0 - - - - - - -
21/09:30am 24.7 CALM 0 1 1017.4 - 0.0 - - - - - - -
21/09:00am 24.2 CALM 0 0 1017.2 - 0.0 - - - - - - -
21/08:30am 24.6 CALM 0 0 1017.0 - 0.0 - - - - - - -
21/08:00am 23.8 CALM 0 0 1016.7 - 0.0 - - - - - - -
21/07:30am 23.2 CALM 0 0 1016.5 - 0.0 - - - - - - -
21/07:00am 22.9 CALM 0 0 1016.3 - 0.0 - - - - - - -
21/06:30am 22.6 CALM 0 0 1015.9 - 0.0 - - - - - - -
21/06:00am 22.6 CALM 0 0 1015.7 - 0.0 - - - - - - -
21/05:30am 22.6 CALM 0 0 1015.4 - 0.0 - - - - - - -
21/05:00am 22.0 CALM 0 0 1015.3 - 0.0 - - - - - - -
21/04:30am 22.1 CALM 0 0 1015.1 - 0.0 - - - - - - -
21/04:00am 22.4 CALM 0 0 1015.2 - 0.0 - - - - - - -
21/03:30am 22.3 CALM 0 0 1015.4 - 0.0 - - - - - - -
21/03:00am 22.4 CALM 0 0 1015.6 - 0.0 - - - - - - -
21/02:30am 22.2 CALM 0 0 1015.6 - 0.0 - - - - - - -
21/02:00am 22.2 CALM 0 0 1015.9 - 0.0 - - - - - - -
21/01:30am 22.2 CALM 0 0 1016.0 - 0.0 - - - - - - -
21/01:00am 22.4 CALM 0 0 1016.2 - 0.0 - - - - - - -
21/12:30am 22.6 CALM 0 16 1016.7 - 0.0 - - - - - - -
21/12:00am 22.5 CALM 0 4 1017.0 - 0.0 - - - - - - -
 
Date/Time
EST
Temp

°C
Wind Pressure Rain
since 9am
mm
Weather Cloud Vis
km
Sea
Height
m
Swell
Dir
 
Speed
knots
Gust
knots
hPa Trend Height
m
Period
s
Dir
20/11:30pm 22.7 CALM 0 16 1017.3 - 0.0 - - - - - - -
20/11:00pm 22.6 CALM 0 1 1017.5 - 0.0 - - - - - - -
20/10:30pm 22.7 CALM 0 0 1017.6 - 0.0 - - - - - - -
20/10:00pm 22.6 CALM 0 10 1017.7 - 0.0 - - - - - - -
20/09:30pm 22.4 CALM 0 7 1017.6 - 0.0 - - - - - - -
20/09:00pm 22.3 CALM 0 19 1017.5 - 0.0 - - - - - - -
20/08:30pm 22.6 CALM 0 13 1017.4 - 0.0 - - - - - - -
20/08:00pm 22.5 SE 1 16 1016.8 - 0.0 - - - - - - -
20/07:30pm 22.6 SE 1 19 1016.7 - 0.0 - - - - - - -
20/07:00pm 22.6 CALM 0 17 1016.5 - 0.0 - - - - - - -
20/06:30pm 22.6 CALM 0 17 1016.2 - 0.0 - - - - - - -
20/06:00pm 22.9 CALM 0 10 1015.8 - 0.0 - - - - - - -
20/05:30pm 23.2 SSE 1 18 1015.4 - 0.0 - - - - - - -
20/05:00pm 23.7 CALM 0 4 1015.2 - 0.0 - - - - - - -
20/04:30pm 24.2 SSE 1 19 1015.0 - 0.0 - - - - - - -
20/04:00pm 24.5 CALM 0 1 1014.6 - 0.0 - - - - - - -
20/03:30pm 24.7 CALM 0 0 1014.6 - 0.0 - - - - - - -
20/03:00pm 25.3 CALM 0 0 1014.4 - 0.0 - - - - - - -
20/02:30pm 25.2 CALM 0 0 1014.5 - 0.0 - - - - - - -
20/02:15pm 25.2 SSE 15 19 1014.8 - 0.0 - - - - - - -
20/02:00pm 25.5 CALM 0 1 1015.0 - 0.0 - - - - - - -
20/01:30pm 25.7 CALM 0 0 1015.4 - 0.0 - - - - - - -
20/01:00pm 26.8 CALM 0 0 1015.8 - 0.0 - - - - - - -
20/12:30pm 25.9 CALM 0 0 1016.1 - 0.0 - - - - - - -
20/12:00pm 27.0 CALM 0 1 1016.7 - 0.0 - - - - - - -
20/11:30am 26.8 SE 13 16 1016.9 - 0.0 - - - - - - -
20/11:00am 26.2 SE 13 18 1017.1 - 0.0 - - - - - - -
20/10:30am 26.0 SE 12 17 1017.3 - 0.0 - - - - - - -
20/10:00am 25.0 SE 12 18 1017.4 - 0.0 - - - - - - -
20/09:30am 25.2 SE 12 16 1017.4 - 0.0 - - - - - - -
20/09:00am 24.0 SE 11 16 1017.4 - 0.0 - - - - - - -
20/08:30am 24.4 SE 11 16 1017.1 - 0.0 - - - - - - -
20/08:00am 23.5 SE 11 14 1017.0 - 0.0 - - - - - - -
20/07:30am 22.7 SE 10 13 1016.8 - 0.0 - - - - - - -
20/07:00am 22.1 SE 9 13 1016.5 - 0.0 - - - - - - -
20/06:30am 21.9 SE 9 13 1016.3 - 0.0 - - - - - - -
20/06:00am 22.0 SE 9 14 1015.9 - 0.0 - - - - - - -
20/05:30am 22.2 ESE 9 14 1015.6 - 0.0 - - - - - - -
20/05:00am 22.0 SE 9 13 1015.2 - 0.0 - - - - - - -
20/04:30am 21.8 ESE 8 11 1015.2 - 0.0 - - - - - - -
20/04:00am 21.9 ESE 9 13 1015.2 - 0.0 - - - - - - -
20/03:30am 21.9 ESE 8 13 1015.4 - 0.0 - - - - - - -
20/03:00am 21.9 ESE 8 13 1015.7 - 0.0 - - - - - - -
20/02:30am 22.0 SE 9 12 1015.9 - 0.0 - - - - - - -
20/02:00am 22.0 SE 9 12 1015.9 - 0.0 - - - - - - -

Other Formats:

Comma delimited format used in spreadsheet applications
http://www.bom.gov.au/fwo/IDQ60701/IDQ60701.94188.axf

JavaScript Object Notation format (JSON) in row-major order
http://www.bom.gov.au/fwo/IDQ60701/IDQ60701.94188.json